{"data":{"norad_id":49188,"intl_designator":"2021-083C","name":"ONEWEB-0306","alt_names":[],"object_type":"PAYLOAD","status":"ACTIVE","operator":null,"country":"UK","launch_date":"2021-09-14","launch_site_code":"TYMSC","launch_vehicle":null,"mission":null,"orbit_class":"UNKNOWN","rcs_meters":null,"size_class":null,"mass_kg":null,"dimensions":null,"purposes":["comms"],"wikipedia_slug":null,"has_3d_model":false,"image_url":null,"decayed_at":null,"tle_current":{"epoch":"2026-09-19T01:50:57.537312Z","epoch_age_seconds":148773,"freshness":"FRESH","line1":"1 49188U 21083C   26262.07705483 -.00000014  00000+0 -67410-4 0  9994","line2":"2 49188  87.9167 316.7936 0001717  92.8552 267.2777 13.18684342242390","mean_motion":13.18684342,"eccentricity":0.0001717,"inclination_deg":87.9167,"raan_deg":316.7936,"arg_perigee_deg":92.8552,"mean_anomaly_deg":267.2777,"bstar":-6.741e-5,"rev_number":24239,"period_min":109.19974963955,"perigee_km":1188.4500642254,"apogee_km":1191.0488764393,"semimajor_km":7567.8864703323,"source":"CELESTRAK","updated_at":"2026-09-20T09:00:44.660520Z"}}}